Location: Unspecified
(0.0000°N, 0.0000°E)
Time: 09:06:00
(UTC+00:00)

Transit 4B - Pass Details

Date: 22 August 2024
Orbit: 947 x 1097 km, 32.4° (Epoch: 07 September)

Event Time Altitude Azimuth Distance (km) Brightness Sun altitude
Rises 19:30:18 0° 303° (WNW) 3,685 12.7 -21.4°
Reaches altitude 10° 19:32:59 10° 302° (WNW) 2,718 11.8 -22.1°
Maximum altitude 19:39:32 83° 215° (SW) 965 8.4 -23.7°
Enters shadow 19:41:27 48° 133° (SE) 1,217 8.6 -24.2°
